Find Starlink 38168

NORAD ID: 100251 Int'l Des: 2026-181 Owner: SPXS Country: US Constellation: starlink operational

現在のビュー

3D地球を読み込み中...

About Starlink 38168

Starlink 38168 (NORAD 100251) is a starlink constellation satellite launched Aug 8, 2026 by SPXS of US. with a mass of 575.00 kg.

次回通過

Passes for default location (London). Set your location on the main map for personalized predictions.

高度履歴

Loading altitude history...

軌道要素

1 A0251U 26181F 26254.63553141 .00157881 00000-0 10404-2 0 9994
2 A0251 97.2823 297.7737 0001423 97.8605 262.2821 15.75179853 6569
Epoch: Sep 11, 2026 • Age: 8 hours

現在のステータス

高度 346.7 km
遠地点 / 近地点 N/A
速度 7.70 km/s
衛星直下点 26.79°N, 137.97°E
打ち上げ日 Aug 8, 2026
運用期間 34 days
タイプ internet

技術仕様

分類 Payload
質量 575.00 kg
乾燥質量 530.00 kg
総質量 575.00 kg
長さ 0.30 m
直径 4.10 m
スパン 29.00 m
形状 Box + pan
製造者 SPXS
バスタイプ Starlink V2MO
フェーズステータス In Orbit
所有者/国 SPXS/US

Most Searched